Change the Weather History Date:

Monday, April 22, 2013

  Actual Average Record
Temperature  
Mean Temperature 53 °F 54 °F  
Max Temperature 68 °F 64 °F 88 °F (1980)
Min Temperature 38 °F 43 °F 28 °F (1986)
Degree Days  
Heating Degree Days 12 12  
Month to date heating degree days 417 324  
Since 1 July heating degree days 5778 5813  
Cooling Degree Days 0 0  
Month to date cooling degree days 0 0  
Year to date cooling degree days 0 1  
Growing Degree Days 6 (Base 50)    
Moisture  
Dew Point 42 °F    
Average Humidity 67    
Maximum Humidity 93    
Minimum Humidity 40    
Precipitation  
Precipitation 0.06 in 0.14 in 1.85 in (1968)
Month to date precipitation 6.77 2.44  
Sea Level Pressure  
Sea Level Pressure 30.05 in    
Wind  
Wind Speed 11 mph (South)    
Max Wind Speed 22 mph    
Max Gust Speed 25 mph    
Visibility 10 miles    
Events Rain    
T = Trace of Precipitation, MM = Missing Value Source: NWS Daily Summary

Daily Weather History Graph

Daily Weather History Graph

Search for Another Location

Airport or City:

Trip Planner

Search our weather history database for the weather conditions in past years. The results will help you decide how hot, cold, wet, or windy it might be!

Date:

Astronomy

Apr. 22, 2013 Rise Set
Actual Time 6:26 AM CDT 8:02 PM CDT
Civil Twilight 5:57 AM CDT 8:31 PM CDT
Nautical Twilight 5:22 AM CDT 9:06 PM CDT
Astronomical Twilight 4:45 AM CDT 9:43 PM CDT
Moon 4:51 PM CDT (4/22) 4:22 AM CDT (4/22)
Length of Visible Light 14h 34m
Length of Day
13h 36m
Waxing Gibbous, 88% of the Moon is Illuminated
Apr 22
Waxing Gibbous
Apr 25
Full
May 2
Last Quarter
May 9
New
May 17
First Quarter

Hourly Weather History & Observations

Time (CDT) Temp. Windchill Dew Point Humidity Pressure Visibility Wind Dir Wind Speed Gust Speed Precip Events Conditions
12:53 AM 55.0 °F - 39.9 °F 57% 30.13 in 10.0 mi SSE 8.1 mph 17.3 mph N/A   Overcast
1:53 AM 54.0 °F - 39.9 °F 59% 30.12 in 10.0 mi South 9.2 mph - N/A   Overcast
2:53 AM 54.0 °F - 41.0 °F 62% 30.13 in 10.0 mi Calm Calm - N/A   Overcast
3:53 AM 53.1 °F - 41.0 °F 64% 30.11 in 10.0 mi SE 4.6 mph - N/A   Overcast
4:53 AM 51.1 °F - 39.9 °F 66% 30.11 in 10.0 mi SE 6.9 mph - N/A   Scattered Clouds
5:53 AM 50.0 °F - 39.0 °F 66% 30.10 in 10.0 mi SE 5.8 mph - N/A   Partly Cloudy
6:53 AM 50.0 °F - 39.9 °F 68% 30.12 in 10.0 mi SSE 4.6 mph - N/A   Overcast
7:53 AM 51.1 °F - 39.9 °F 66% 30.09 in 10.0 mi SSE 10.4 mph - N/A   Clear
8:53 AM 53.1 °F - 39.9 °F 61% 30.11 in 10.0 mi SSW 11.5 mph - N/A   Clear
9:53 AM 57.0 °F - 41.0 °F 55% 30.09 in 10.0 mi SSW 15.0 mph 19.6 mph N/A   Clear
10:53 AM 59.0 °F - 42.1 °F 53% 30.09 in 10.0 mi South 11.5 mph - N/A   Overcast
11:53 AM 63.0 °F - 44.1 °F 50% 30.06 in 10.0 mi South 10.4 mph - N/A   Scattered Clouds
12:53 PM 64.9 °F - 44.1 °F 47% 30.02 in 10.0 mi South 16.1 mph 19.6 mph N/A   Clear
1:53 PM 64.9 °F - 44.1 °F 47% 29.99 in 10.0 mi SSE 15.0 mph 20.7 mph N/A   Clear
2:53 PM 66.9 °F - 43.0 °F 42% 29.97 in 10.0 mi South 13.8 mph 20.7 mph N/A   Mostly Cloudy
3:53 PM 64.0 °F - 39.9 °F 41% 29.95 in 10.0 mi South 13.8 mph 21.9 mph N/A   Overcast
4:53 PM 63.0 °F - 39.9 °F 43% 29.93 in 10.0 mi South 5.8 mph - N/A   Overcast
5:53 PM 62.1 °F - 41.0 °F 46% 29.96 in 10.0 mi SSW 16.1 mph - N/A   Overcast
6:53 PM 57.0 °F - 44.1 °F 62% 29.99 in 6.0 mi SSW 15.0 mph 25.3 mph 0.00 in Rain Light Rain
7:53 PM 51.1 °F - 46.9 °F 86% 30.02 in 9.0 mi West 9.2 mph - 0.02 in Rain Light Rain
8:53 PM 50.0 °F - 48.0 °F 93% 30.03 in 10.0 mi NW 4.6 mph - 0.04 in   Overcast
9:53 PM 50.0 °F - 48.0 °F 93% 30.03 in 8.0 mi NNW 4.6 mph - 0.00 in   Overcast
10:01 PM 50.0 °F - 48.2 °F 94% 30.03 in 9.0 mi NW 6.9 mph - N/A   Overcast
10:10 PM 51.8 °F - 48.2 °F 88% 30.03 in 10.0 mi NW 11.5 mph - N/A   Overcast
10:53 PM 46.9 °F - 44.1 °F 90% 30.05 in 10.0 mi NNW 13.8 mph - N/A   Overcast
11:53 PM 39.9 °F 31.1 °F 37.0 °F 89% 30.02 in 10.0 mi North 17.3 mph - N/A   Overcast